Temp
20 20 20 20 19 19 19 19 19 19 19 19 19 19 20 20 20 20 20 20 20 19 19 19 19 19 19 19 19 19 19 19 19 19 19 20 20 20 20 20 20 20
21 20 20 20 20 19 19 19 19 19 19 19 19 19 19 20 20 20 20 20 20 20 19 19 19 19 19 19 19 19 19 19 19 19 19 19 19 20 20 20 20 20
21 21 21 20 20 20 20 19 19 19 19 19 19 19 19 19 20 20 20 20 20 19 19 19 19 19 19 19 19 19 19 19 19 19 19 19 19 19 19 20 20 20
21 21 21 21 21 20 20 20 19 19 19 19 19 19 19 19 19 19 20 20 20 19 19 19 19 19 19 19 19 19 19 19 19 19 19 19 19 19 19 19 20 20
21 21 21 21 21 20 20 20 20 19 19 19 19 19 19 19 19 19 19 20 20 19 19 19 19 20 19 19 19 19 19 19 19 19 19 19 19 19 19 19 20 20
21 21 21 21 21 20 20 20 20 20 20 19 19 19 19 19 19 19 19 19 19 19 19 19 19 19 19 19 19 19 19 19 19 19 19 20 20 20 20 20 20 20
21 21 21 21 21 20 20 20 20 20 20 20 19 19 19 19 19 19 19 19 19 19 19 19 19 19 19 19 19 19 19 19 19 19 19 19 20 20 20 20 20 20
21 21 21 21 21 21 20 20 20 20 20 20 20 20 19 19 19 19 19 19 19 19 19 19 19 19 19 19 19 19 19 19 19 19 19 19 19 20 20 20 20 20
21 21 21 21 21 21 21 20 20 20 20 20 20 20 20 20 19 19 19 19 19 19 19 19 19 19 19 19 19 19 19 19 19 19 19 19 19 20 20 19 19 19
20 21 21 21 21 21 21 21 21 20 20 20 20 20 20 20 20 20 20 19 19 19 19 19 19 19 19 19 19 19 19 19 19 19 19 19 19 19 20 19 19 19
20 20 21 21 21 21 21 21 21 21 20 20 20 20 20 20 20 20 20 20 20 20 20 20 19 19 19 19 19 19 19 19 19 19 19 19 19 19 19 19 19 19
19 19 20 21 21 21 21 21 21 21 21 20 20 20 20 20 20 20 20 20 20 20 20 20 19 19 19 19 19 19 19 19 19 19 19 19 19 19 19 19 19 19
20 19 19 20 21 21 21 21 21 21 21 21 20 20 20 20 20 20 20 20 20 20 20 19 20 20 20 19 19 19 19 19 19 19 19 19 19 19 19 19 19 19
21 20 20 20 20 20 20 20 20 20 20 20 20 20 20 20 20 20 20 20 20 20 19 19 19 20 20 20 19 19 19 19 19 19 19 19 19 19 19 19 19 19
21 20 20 20 20 20 20 20 20 20 20 20 20 20 20 20 20 20 20 20 20 19 19 19 19 19 20 20 20 19 19 19 19 19 19 19 19 19 19 19 19 19
20 20 20 20 21 21 20 20 20 20 20 20 20 20 20 20 20 20 20 20 19 19 19 19 19 19 20 20 19 19 19 19 19 19 19 19 19 19 19 19 19 19
19 19 19 19 20 21 20 20 20 20 20 20 20 20 20 20 20 20 20 20 19 19 19 19 19 19 19 19 19 19 19 19 19 19 19 19 19 19 19 19 19 19
19 19 19 19 19 19 20 20 20 20 19 20 20 20 20 20 20 20 20 20 20 20 19 19 20 20 20 20 19 19 19 19 19 19 19 19 19 19 19 19 19 19
19 19 19 19 18 18 18 19 20 20 19 19 20 20 20 20 20 20 20 20 20 20 20 20 20 20 20 20 20 20 19 19 19 19 19 19 19 19 19 19 19 19
18 18 18 19 19 18 18 18 19 20 20 19 19 19 20 20 20 20 20 21 21 20 20 20 20 20 20 20 20 20 20 19 19 19 19 19 19 19 19 19 19 19
18 17 17 18 18 19 18 18 18 19 20 19 19 18 18 19 19 20 20 20 20 20 20 20 20 20 20 20 20 20 20 20 19 19 19 19 19 20 19 19 19 19
17 17 17 17 17 18 18 18 17 18 19 19 19 18 18 18 18 18 19 19 19 19 20 20 20 20 20 20 20 20 20 20 20 20 19 19 19 20 20 20 19 19
17 17 17 17 17 17 17 17 17 17 17 18 18 17 18 18 17 17 18 18 18 19 19 20 20 20 20 20 19 19 19 20 20 20 20 19 19 19 19 19 19 19
16 16 16 16 16 16 16 16 16 17 17 17 17 17 18 18 18 17 17 17 17 17 18 19 19 20 20 20 19 18 18 19 20 20 20 19 19 19 19 19 19 19
15 15 15 16 16 16 16 16 16 16 16 16 16 17 18 18 18 18 18 18 17 17 17 17 18 19 19 19 19 18 18 18 19 19 19 19 19 19 19 19 19 19
15 15 15 15 16 16 16 17 16 16 16 16 16 17 17 18 18 17 17 17 17 17 17 17 18 19 19 19 19 18 18 18 18 19 19 19 19 19 19 19 19 19
Height
1577 1579 1580 1582 1583 1585 1586 1588 1589 1590 1591 1592 1593 1594 1595 1596 1597 1597 1598 1599 1599 1600 1601 1601 1602 1603 1603 1603 1604 1604 1605 1605 1605 1606 1606 1606 1606 1606 1607 1607 1607 1607
1575 1577 1579 1580 1581 1583 1585 1586 1587 1588 1590 1591 1592 1593 1594 1594 1595 1596 1597 1597 1598 1599 1600 1600 1601 1601 1602 1602 1603 1603 1604 1604 1605 1605 1605 1605 1605 1605 1605 1606 1606 1606
1574 1575 1577 1579 1580 1581 1583 1584 1586 1587 1588 1589 1590 1591 1592 1593 1594 1595 1595 1596 1597 1598 1598 1599 1600 1600 1601 1601 1602 1602 1602 1603 1603 1604 1604 1604 1604 1604 1604 1605 1605 1605
1572 1574 1575 1577 1578 1580 1581 1583 1584 1585 1586 1587 1589 1590 1591 1591 1592 1593 1594 1595 1595 1596 1597 1598 1598 1599 1599 1600 1600 1601 1601 1602 1602 1602 1602 1603 1603 1603 1603 1603 1603 1604
1570 1572 1574 1575 1577 1578 1580 1581 1582 1583 1585 1586 1587 1588 1589 1590 1591 1591 1592 1593 1594 1595 1596 1596 1597 1597 1598 1598 1599 1599 1600 1600 1601 1601 1601 1601 1601 1601 1602 1602 1602 1602
1569 1570 1572 1574 1575 1577 1578 1579 1581 1582 1583 1584 1585 1586 1587 1588 1589 1590 1591 1592 1593 1594 1594 1595 1595 1596 1597 1597 1597 1598 1598 1599 1599 1599 1599 1600 1600 1600 1600 1600 1600 1601
1567 1568 1570 1571 1573 1574 1576 1577 1579 1580 1581 1583 1584 1585 1586 1586 1587 1588 1589 1590 1591 1592 1593 1593 1594 1594 1595 1595 1596 1596 1597 1597 1597 1597 1598 1598 1598 1598 1598 1599 1599 1599
1565 1566 1568 1569 1571 1572 1574 1575 1577 1578 1579 1581 1582 1583 1584 1585 1586 1587 1588 1588 1589 1590 1591 1591 1592 1593 1593 1594 1594 1594 1595 1595 1596 1596 1596 1596 1596 1597 1597 1597 1597 1597
1563 1564 1565 1567 1568 1570 1571 1573 1575 1576 1577 1579 1580 1581 1582 1583 1584 1585 1586 1586 1587 1588 1589 1589 1590 1591 1591 1592 1592 1593 1593 1593 1594 1594 1594 1594 1595 1595 1595 1595 1595 1595
1561 1562 1564 1565 1566 1568 1569 1571 1573 1574 1575 1576 1578 1579 1580 1581 1582 1583 1584 1584 1585 1586 1586 1587 1588 1589 1589 1590 1590 1591 1591 1591 1592 1592 1592 1592 1593 1593 1593 1594 1594 1594
1560 1561 1562 1563 1564 1566 1567 1569 1570 1571 1573 1574 1575 1577 1578 1579 1580 1581 1581 1582 1583 1584 1584 1585 1585 1586 1587 1587 1588 1589 1589 1590 1590 1590 1590 1590 1591 1591 1591 1592 1592 1592
1558 1559 1560 1561 1563 1564 1565 1567 1568 1569 1570 1571 1573 1574 1575 1576 1577 1578 1579 1580 1581 1581 1582 1582 1583 1584 1584 1585 1586 1586 1587 1587 1588 1588 1588 1589 1589 1589 1589 1590 1590 1590
1556 1557 1558 1559 1560 1562 1563 1564 1566 1567 1568 1569 1571 1572 1573 1574 1575 1576 1577 1577 1578 1579 1579 1580 1581 1581 1582 1582 1583 1584 1584 1585 1585 1586 1586 1586 1587 1587 1588 1588 1588 1588
1552 1554 1555 1556 1557 1559 1560 1562 1563 1565 1566 1567 1569 1569 1570 1571 1572 1573 1574 1575 1576 1577 1577 1578 1578 1579 1579 1580 1580 1581 1582 1582 1583 1584 1584 1584 1585 1585 1586 1586 1586 1586
1548 1551 1552 1553 1554 1555 1557 1559 1560 1562 1563 1565 1566 1567 1568 1569 1570 1571 1572 1573 1574 1574 1575 1576 1576 1576 1577 1577 1578 1579 1579 1580 1581 1581 1582 1582 1583 1583 1584 1584 1584 1584
1546 1548 1548 1550 1551 1552 1553 1555 1556 1558 1560 1561 1563 1565 1566 1567 1568 1569 1570 1571 1571 1572 1573 1573 1574 1574 1575 1576 1576 1577 1577 1578 1578 1579 1579 1580 1580 1581 1581 1581 1581 1582
1543 1545 1546 1547 1548 1548 1550 1551 1552 1554 1556 1558 1560 1561 1563 1564 1566 1567 1567 1568 1569 1570 1570 1571 1571 1572 1573 1574 1575 1575 1575 1575 1576 1576 1577 1577 1578 1578 1579 1579 1579 1579
1539 1541 1543 1544 1545 1546 1547 1548 1549 1550 1552 1554 1556 1558 1559 1561 1563 1564 1565 1566 1566 1567 1568 1568 1569 1570 1571 1572 1572 1573 1574 1573 1573 1574 1574 1574 1575 1575 1576 1576 1576 1577
1534 1536 1538 1540 1541 1543 1545 1545 1546 1547 1549 1551 1553 1555 1557 1558 1560 1561 1562 1563 1564 1564 1565 1566 1566 1567 1569 1570 1570 1571 1571 1571 1571 1571 1571 1572 1572 1572 1573 1573 1574 1574
1531 1532 1534 1536 1538 1541 1543 1544 1544 1544 1545 1548 1551 1552 1554 1556 1557 1558 1559 1561 1561 1562 1562 1563 1564 1565 1566 1567 1568 1568 1569 1568 1568 1568 1568 1569 1569 1569 1570 1570 1571 1571
1527 1528 1530 1532 1534 1537 1540 1542 1542 1542 1543 1546 1548 1550 1551 1553 1554 1555 1556 1558 1559 1559 1560 1560 1561 1561 1562 1563 1564 1565 1566 1565 1565 1565 1565 1565 1566 1566 1567 1567 1567 1568
1522 1524 1526 1528 1531 1533 1536 1539 1539 1540 1541 1543 1544 1546 1548 1550 1551 1553 1553 1554 1555 1556 1557 1557 1557 1558 1558 1559 1560 1561 1562 1562 1562 1562 1562 1563 1563 1563 1563 1564 1564 1564
1519 1521 1522 1524 1527 1531 1533 1536 1537 1537 1538 1540 1541 1543 1546 1548 1549 1550 1549 1550 1552 1553 1554 1555 1555 1555 1556 1556 1556 1557 1557 1558 1559 1559 1559 1559 1560 1560 1560 1560 1561 1561
1519 1520 1521 1522 1525 1528 1531 1533 1535 1536 1537 1538 1540 1542 1543 1545 1547 1547 1547 1548 1549 1550 1551 1552 1551 1552 1553 1554 1554 1554 1553 1554 1555 1556 1556 1556 1556 1557 1557 1557 1557 1557
1521 1521 1522 1522 1524 1526 1529 1531 1532 1534 1535 1537 1539 1541 1541 1542 1543 1544 1545 1546 1547 1548 1549 1548 1548 1549 1549 1550 1551 1551 1550 1550 1552 1553 1553 1553 1553 1553 1554 1554 1553 1554
1523 1523 1523 1523 1524 1525 1527 1529 1531 1532 1534 1536 1537 1539 1539 1539 1540 1542 1543 1544 1544 1545 1546 1546 1545 1545 1545 1546 1547 1549 1548 1548 1549 1550 1550 1550 1550 1550 1550 1550 1550 1550
Wind_Speed
18 18 18 17 16 15 15 14 13 13 13 12 12 12 12 12 11 12 12 12 13 13 13 13 12 12 12 11 10 10 10 10 10 9 9 10 10 10 11 11 11 12
18 18 18 18 17 16 15 15 14 14 14 13 13 12 12 12 12 12 12 13 13 13 13 13 13 12 12 11 11 11 11 11 11 11 11 11 10 10 11 11 11 11
19 19 19 18 18 17 16 16 15 15 15 15 14 13 12 12 12 12 12 12 13 13 14 14 13 13 12 12 12 12 12 12 12 13 12 12 12 12 11 12 11 11
20 20 19 19 18 17 17 17 16 15 15 15 15 13 13 13 12 12 12 13 13 13 14 15 14 14 13 12 12 13 13 13 13 13 14 14 14 13 13 13 12 12
21 21 20 20 19 19 19 18 18 17 16 16 15 14 14 14 13 12 12 13 13 14 14 15 15 15 14 14 13 14 14 13 13 13 14 14 14 14 13 14 13 13
22 21 21 21 21 20 20 20 19 18 17 17 16 15 15 15 14 13 12 12 13 14 14 15 15 14 14 14 14 15 15 15 14 14 14 15 14 14 14 14 14 14
23 22 22 22 22 22 22 21 20 19 19 18 17 16 16 16 16 15 14 13 13 14 15 15 15 15 15 15 16 16 16 16 16 15 15 15 14 14 14 14 15 14
23 22 22 22 23 23 23 23 21 20 20 19 18 18 17 17 17 16 16 15 14 15 15 16 16 15 16 16 17 17 17 17 17 16 16 15 15 15 15 14 14 14
23 23 22 22 23 24 24 24 23 21 21 21 20 19 18 18 17 17 17 17 16 16 16 16 17 16 16 17 17 17 17 17 17 16 16 16 16 15 15 14 14 14
24 23 23 23 23 24 25 24 23 22 22 22 21 20 19 19 18 18 18 18 18 18 17 17 17 17 17 16 16 16 17 17 16 16 16 16 16 16 15 15 15 15
26 25 24 24 24 25 25 24 24 23 22 22 21 21 20 19 19 20 20 20 19 18 17 17 17 17 17 16 16 16 17 17 17 16 16 16 17 17 15 15 15 16
29 27 26 25 24 24 24 24 24 23 23 22 22 21 20 19 20 20 20 20 19 18 17 16 16 16 17 16 16 17 17 17 17 17 17 17 17 17 16 15 16 16
29 28 27 26 25 24 24 25 25 24 23 23 23 22 20 20 20 21 20 19 19 18 17 17 17 17 17 17 17 17 17 17 17 18 18 18 18 18 17 16 16 16
29 29 29 28 27 26 25 25 25 25 24 24 23 23 21 21 21 20 19 19 19 18 17 17 18 18 18 18 18 17 17 17 17 18 18 18 19 18 18 17 17 17
29 28 28 29 29 27 26 26 26 25 25 24 24 23 22 22 21 21 20 20 19 19 18 18 18 18 19 18 18 17 17 18 18 18 18 18 18 18 18 18 18 18
31 29 29 29 29 28 27 26 26 26 26 25 25 24 23 23 22 21 21 21 21 20 19 18 18 19 18 17 16 16 17 18 19 19 18 18 18 19 19 19 19 19
31 30 32 32 31 30 29 27 26 26 26 26 26 25 25 24 23 23 23 22 22 22 21 20 20 19 17 16 15 15 16 17 19 19 19 19 19 19 20 20 20 20
32 32 35 36 34 31 29 28 27 26 26 27 27 27 26 25 25 25 25 24 24 23 23 22 21 20 18 17 16 15 15 16 18 18 19 19 20 20 21 21 21 21
35 35 36 37 37 34 30 29 28 27 27 27 27 27 27 26 26 26 26 26 25 25 24 24 23 21 19 18 17 17 17 18 19 19 19 19 20 20 21 21 21 21
34 36 36 36 37 34 30 28 28 28 28 27 26 26 26 26 27 26 27 27 27 26 26 25 24 23 21 19 19 19 19 20 20 20 19 20 20 21 21 21 22 22
32 34 34 34 35 34 31 29 29 28 27 26 26 26 27 26 25 25 26 26 27 28 27 26 26 25 23 22 21 21 21 22 22 21 21 22 22 21 21 21 21 22
29 30 30 31 32 31 30 28 26 23 22 25 28 28 27 25 23 24 26 26 27 29 29 29 29 28 26 24 24 24 24 23 24 24 23 24 24 24 23 22 22 23
25 26 27 27 26 24 23 22 21 19 20 23 25 25 24 22 20 21 23 23 24 27 29 30 30 29 28 26 24 23 24 24 25 26 26 26 26 26 26 25 24 24
10 11 14 16 17 15 14 13 13 15 17 17 17 16 17 17 16 16 17 17 18 21 23 26 28 29 28 26 23 20 20 21 23 25 27 28 28 28 28 28 28 28
8 6 6 8 8 8 9 9 9 10 11 11 11 12 13 14 14 14 15 16 17 17 17 19 21 22 22 23 22 21 20 21 22 25 27 27 28 29 29 30 31 32
10 9 8 8 8 6 4 5 6 8 9 10 10 11 12 14 14 13 13 14 15 17 17 17 18 19 19 20 22 23 24 24 25 27 28 29 29 30 31 32 34 34
Wind_Direction
225 225 222 218 215 216 218 220 221 224 227 232 238 242 242 240 239 239 238 235 235 234 233 234 236 236 235 239 243 242 242 247 253 254 255 254 254 257 257 256 256 257
224 227 228 227 224 221 222 224 227 232 235 238 243 248 247 242 239 238 237 235 237 237 234 234 236 235 235 240 245 247 248 251 253 254 254 253 253 253 254 255 255 256
222 225 228 230 230 227 226 227 230 235 239 240 241 246 249 245 242 242 240 237 238 239 237 236 238 237 237 240 243 247 250 251 253 255 256 255 254 252 252 253 254 257
221 223 226 228 230 231 231 231 232 235 237 238 238 242 245 243 242 244 242 237 235 237 238 238 239 239 237 238 241 244 247 250 252 255 258 257 255 254 254 255 257 260
223 224 225 227 228 230 233 234 234 233 234 235 237 240 240 237 237 239 238 235 232 233 237 239 240 240 239 238 241 243 245 249 253 255 258 258 258 258 258 259 262 265
225 225 226 228 229 229 231 234 235 233 232 233 235 237 238 236 233 234 235 234 232 233 237 241 242 242 241 241 243 246 248 250 252 253 254 257 259 259 261 262 263 265
227 227 227 228 230 230 231 233 234 233 233 234 234 235 236 235 233 233 234 235 236 236 239 242 244 242 241 242 245 248 251 252 253 252 251 253 256 258 260 262 263 265
229 229 228 229 230 231 232 233 233 232 232 234 235 234 233 233 234 233 234 236 238 240 242 244 244 242 240 242 245 248 251 253 254 254 252 253 256 257 258 260 264 265
231 230 230 230 231 232 233 235 235 232 232 233 235 236 233 232 233 234 235 237 240 243 244 245 244 242 240 243 246 248 250 252 255 257 257 256 257 257 257 258 261 263
236 233 232 230 231 233 234 236 237 235 233 232 233 236 236 233 233 234 235 237 240 243 245 246 246 244 244 246 248 251 252 253 255 258 258 258 258 257 257 257 258 259
241 239 237 233 232 234 236 237 238 238 237 233 232 234 235 235 234 234 236 237 240 243 245 247 248 247 246 247 250 253 253 254 255 256 257 258 259 258 255 254 254 255
245 244 242 240 237 236 237 238 238 239 238 236 233 232 233 236 236 236 238 240 242 245 247 248 248 246 245 246 250 253 253 253 254 254 255 256 257 256 254 252 252 253
249 248 246 245 243 241 240 240 239 239 240 238 236 233 233 235 236 237 240 243 244 244 245 245 245 244 244 244 247 249 250 251 253 254 255 255 255 254 252 251 252 253
249 249 248 248 247 246 243 242 242 241 240 240 238 236 236 236 237 238 240 242 242 241 241 243 244 242 242 243 244 245 248 251 253 254 255 255 253 252 251 252 253 254
248 248 250 250 248 247 246 245 244 242 242 241 240 238 238 237 237 237 239 240 239 238 238 240 242 241 240 240 242 245 248 251 254 254 255 255 253 251 251 253 254 255
249 248 250 251 250 248 246 244 243 243 242 241 240 238 238 238 238 238 240 240 238 236 236 239 242 242 239 239 242 246 249 252 253 253 253 254 253 251 251 253 255 256
250 250 252 253 252 250 246 243 242 243 243 242 239 238 238 237 237 238 240 240 239 237 236 238 241 240 239 241 244 248 251 253 253 252 251 251 252 253 253 254 255 256
253 253 255 256 256 254 248 242 238 239 243 243 240 239 239 238 237 237 238 239 239 239 237 238 238 237 236 240 244 248 251 253 254 253 253 253 254 255 257 257 257 257
253 253 253 254 257 257 250 243 236 235 240 245 244 242 242 242 242 241 240 239 239 239 238 237 237 236 234 238 244 247 249 252 253 253 254 257 258 259 261 262 261 260
256 255 251 249 252 254 253 249 241 233 235 242 245 245 244 244 245 245 245 243 241 239 238 237 240 240 239 242 248 250 252 254 254 253 254 257 260 261 262 263 263 262
256 254 250 245 245 248 253 254 247 239 236 239 243 245 245 245 246 247 248 248 245 242 239 237 238 239 240 246 252 253 253 254 254 254 255 258 260 262 262 263 262 261
254 251 247 242 240 242 246 248 245 239 235 235 238 241 244 247 250 252 252 252 250 247 243 239 236 234 235 242 252 254 251 250 251 252 253 256 260 261 261 262 261 260
245 242 237 231 228 230 235 240 241 236 231 232 235 239 244 250 254 253 251 253 253 251 248 245 242 238 238 246 258 259 251 249 250 251 252 255 257 260 261 261 260 259
206 208 204 202 203 209 218 231 240 239 240 244 244 241 242 246 251 252 251 253 255 253 250 248 247 245 246 256 270 270 259 255 256 256 256 257 259 261 262 263 263 262
107 116 132 152 166 185 206 221 232 236 242 252 252 244 238 238 246 254 256 257 259 260 258 254 254 253 253 260 271 276 272 267 265 263 263 262 263 265 265 266 266 267
88 94 103 114 123 136 184 233 254 257 258 261 260 254 246 242 247 255 259 259 261 264 265 263 263 266 266 267 271 274 273 270 268 267 266 266 266 266 266 267 267 268